{"data":{"norad_id":62072,"intl_designator":"2024-217R","name":"STARLINK-32603","alt_names":[],"object_type":"PAYLOAD","status":"ACTIVE","operator":null,"country":"US","launch_date":"2024-11-24","launch_site_code":"AFWTR","launch_vehicle":null,"mission":null,"orbit_class":"UNKNOWN","rcs_meters":null,"size_class":null,"mass_kg":null,"dimensions":null,"purposes":["comms"],"wikipedia_slug":null,"has_3d_model":false,"image_url":null,"decayed_at":null,"tle_current":{"epoch":"2026-05-24T13:07:06.632256Z","epoch_age_seconds":113901,"freshness":"FRESH","line1":"1 62072U 24217R   26144.54660454  .00443081  00000+0  13724-1 0  9991","line2":"2 62072  53.1592 201.6702 0001303 117.2014 242.9121 15.31076440 85088","mean_motion":15.3107644,"eccentricity":0.0001303,"inclination_deg":53.1592,"raan_deg":201.6702,"arg_perigee_deg":117.2014,"mean_anomaly_deg":242.9121,"bstar":0.013724,"rev_number":8508,"period_min":94.051476619939,"perigee_km":471.70677501306,"apogee_km":473.49207692567,"semimajor_km":6850.7364259694,"source":"CELESTRAK","updated_at":"2026-05-25T13:38:19.554444Z"}}}